< < Back
Terminal Aerodrome Forecast


Current Version              Previous Versions:   1  2  3  4  5  6  7  8  9  

Terminal Aerodrome Forecast

266
FTUS42 KFFC 261530 AAC
TAFATL
TAF AMD
KATL 261530Z 2616/2718 27006KT P6SM SCT040
     FM261900 22006KT P6SM VCSH SCT035
     FM270100 21003KT P6SM FEW050 SCT100
     FM271400 23005KT P6SM SCT040=

Latest METAR

981
SAUS70 KWBC 262100 RRB
MTRATL
METAR KATL 262052Z 15007KT 10SM FEW080 FEW250 35/14 A3001 RMK AO2 SLP149
CB DSNT N & S T03500144 58014


USA.gov is the U.S. government's official web portal to all federal, state and local government web resources and services.